When you browse on this site, cookies collect data to enhance your experience and personalize the content and advertising you see.
Visit our Privacy Policy to learn more. By continuing to use the site, you agree to this use of cookies and data.
EN

Hourly Weather Harare

Today, 13 August, Thursday

Time Temperature Precipitation Wind Pressure Humidity
00:00 +12°C° 0 mm 1 mps 639 mmHg 31%
01:00 +12°C° 0 mm 1 mps 639 mmHg 36%
02:00 +11°C° 0 mm 1 mps 638 mmHg 40%
03:00 +11°C° 0 mm 1 mps 638 mmHg 45%
04:00 +10°C° 0 mm 1 mps 638 mmHg 50%
05:00 +10°C° 0 mm 1 mps 638 mmHg 55%
06:00 +11°C° 0 mm 0 mps 639 mmHg 50%
07:00 +13°C° 0 mm 0 mps 640 mmHg 45%
08:00 +16°C° 0 mm 0 mps 641 mmHg 37%
09:00 +21°C° 0 mm 1 mps 642 mmHg 27%
10:00 +23°C° 0 mm 2 mps 642 mmHg 18%
11:00 +26°C° 0 mm 3 mps 643 mmHg 9%
12:00 +27°C° 0 mm 4 mps 642 mmHg 8%
13:00 +28°C° 0 mm 4 mps 642 mmHg 6%
14:00 +29°C° 0 mm 5 mps 641 mmHg 5%
15:00 +28°C° 0 mm 5 mps 641 mmHg 6%
16:00 +27°C° 0 mm 4 mps 641 mmHg 7%
17:00 +26°C° 0 mm 4 mps 640 mmHg 8%
18:00 +22°C° 0 mm 4 mps 640 mmHg 11%
19:00 +20°C° 0 mm 3 mps 640 mmHg 13%
20:00 +17°C° 0 mm 3 mps 640 mmHg 15%
21:00 +16°C° 0 mm 3 mps 640 mmHg 18%
22:00 +16°C° 0 mm 3 mps 640 mmHg 20%
23:00 +15°C° 0 mm 2 mps 640 mmHg 22%

Tomorrow, 14 August, Friday

Time Temperature Precipitation Wind Pressure Humidity
00:00 +14°C° 0 mm 2 mps 640 mmHg 24%
01:00 +14°C° 0 mm 2 mps 640 mmHg 25%
02:00 +13°C° 0 mm 2 mps 639 mmHg 27%
03:00 +13°C° 0 mm 2 mps 639 mmHg 29%
04:00 +13°C° 0 mm 2 mps 639 mmHg 31%
05:00 +12°C° 0 mm 2 mps 639 mmHg 32%
06:00 +13°C° 0 mm 4 mps 640 mmHg 30%
07:00 +15°C° 0 mm 5 mps 641 mmHg 27%
08:00 +17°C° 0 mm 6 mps 642 mmHg 25%
09:00 +20°C° 0 mm 6 mps 642 mmHg 23%
10:00 +22°C° 0 mm 5 mps 643 mmHg 21%
11:00 +25°C° 0 mm 5 mps 643 mmHg 19%
12:00 +25°C° 0 mm 4 mps 643 mmHg 17%
13:00 +26°C° 0 mm 4 mps 642 mmHg 16%
14:00 +27°C° 0 mm 3 mps 641 mmHg 15%
15:00 +26°C° 0 mm 3 mps 641 mmHg 16%
16:00 +25°C° 0 mm 4 mps 641 mmHg 16%
17:00 +23°C° 0 mm 4 mps 640 mmHg 17%
18:00 +20°C° 0 mm 3 mps 640 mmHg 25%
19:00 +18°C° 0 mm 3 mps 639 mmHg 34%
20:00 +14°C° 0 mm 3 mps 639 mmHg 42%
21:00 +13°C° 0 mm 3 mps 639 mmHg 48%
22:00 +12°C° 0 mm 3 mps 639 mmHg 55%
23:00 +12°C° 0 mm 2 mps 639 mmHg 61%

Day after tomorrow, 15 August, Saturday

Time Temperature Precipitation Wind Pressure Humidity
00:00 +10°C° 0 mm 2 mps 638 mmHg 64%
01:00 +10°C° 0 mm 2 mps 638 mmHg 67%
02:00 +9°C° 0 mm 2 mps 637 mmHg 71%
03:00 +9°C° 0 mm 2 mps 637 mmHg 69%
04:00 +9°C° 0 mm 2 mps 637 mmHg 68%
05:00 +9°C° 0 mm 2 mps 637 mmHg 66%
06:00 +12°C° 0 mm 2 mps 638 mmHg 56%
07:00 +14°C° 0 mm 2 mps 639 mmHg 46%
08:00 +14°C° 0 mm 3 mps 640 mmHg 36%
09:00 +19°C° 0 mm 2 mps 640 mmHg 29%
10:00 +23°C° 0 mm 2 mps 641 mmHg 22%
11:00 +26°C° 0 mm 1 mps 642 mmHg 15%
12:00 +27°C° 0 mm 1 mps 641 mmHg 13%
13:00 +29°C° 0 mm 1 mps 641 mmHg 11%
14:00 +30°C° 0 mm 1 mps 640 mmHg 9%
15:00 +29°C° 0 mm 1 mps 640 mmHg 10%
16:00 +28°C° 0 mm 1 mps 639 mmHg 11%
17:00 +26°C° 0 mm 1 mps 639 mmHg 12%
18:00 +23°C° 0 mm 1 mps 638 mmHg 15%
19:00 +19°C° 0 mm 2 mps 638 mmHg 19%
20:00 +16°C° 0 mm 2 mps 637 mmHg 23%
21:00 +16°C° 0 mm 2 mps 637 mmHg 27%
22:00 +15°C° 0 mm 2 mps 637 mmHg 32%
23:00 +14°C° 0 mm 2 mps 637 mmHg 37%

16 August, Sunday

Time Temperature Precipitation Wind Pressure Humidity
00:00 +13°C° 0 mm 2 mps 637 mmHg 40%
01:00 +13°C° 0 mm 2 mps 637 mmHg 43%
02:00 +12°C° 0 mm 2 mps 636 mmHg 46%
03:00 +12°C° 0 mm 2 mps 636 mmHg 47%
04:00 +12°C° 0 mm 1 mps 636 mmHg 48%
05:00 +12°C° 0 mm 1 mps 636 mmHg 50%
06:00 +14°C° 0 mm 1 mps 637 mmHg 43%
07:00 +16°C° 0 mm 1 mps 638 mmHg 37%
08:00 +20°C° 0 mm 1 mps 639 mmHg 31%
09:00 +23°C° 0 mm 1 mps 640 mmHg 25%
10:00 +27°C° 0 mm 1 mps 641 mmHg 19%
11:00 +29°C° 0 mm 0 mps 642 mmHg 13%
12:00 +30°C° 0 mm 0 mps 641 mmHg 11%
13:00 +30°C° 0 mm 0 mps 641 mmHg 10%
14:00 +33°C° 0 mm 1 mps 640 mmHg 9%
15:00 +31°C° 0 mm 1 mps 640 mmHg 10%
16:00 +30°C° 0 mm 1 mps 639 mmHg 11%
17:00 +29°C° 0 mm 1 mps 639 mmHg 11%
18:00 +26°C° 0 mm 1 mps 638 mmHg 13%
19:00 +23°C° 0 mm 1 mps 638 mmHg 16%
20:00 +20°C° 0 mm 1 mps 638 mmHg 18%
21:00 +19°C° 0 mm 1 mps 638 mmHg 20%
22:00 +18°C° 0 mm 2 mps 638 mmHg 21%
23:00 +17°C° 0 mm 2 mps 638 mmHg 23%

17 August, Monday

Time Temperature Precipitation Wind Pressure Humidity
00:00 +16°C° 0 mm 2 mps 638 mmHg 25%
01:00 +16°C° 0 mm 2 mps 637 mmHg 26%
02:00 +16°C° 0 mm 2 mps 637 mmHg 28%
03:00 +15°C° 0 mm 2 mps 637 mmHg 30%
04:00 +15°C° 0 mm 2 mps 637 mmHg 32%
05:00 +15°C° 0 mm 2 mps 637 mmHg 34%
06:00 +17°C° 0 mm 3 mps 638 mmHg 31%
07:00 +19°C° 0 mm 3 mps 639 mmHg 29%
08:00 +21°C° 0 mm 4 mps 640 mmHg 27%
09:00 +23°C° 0 mm 4 mps 640 mmHg 23%
10:00 +26°C° 0 mm 4 mps 641 mmHg 19%
11:00 +29°C° 0 mm 4 mps 641 mmHg 15%
12:00 +29°C° 0 mm 4 mps 641 mmHg 14%
13:00 +30°C° 0 mm 4 mps 641 mmHg 13%
14:00 +32°C° 0 mm 4 mps 640 mmHg 12%
15:00 +30°C° 0 mm 4 mps 640 mmHg 13%
16:00 +29°C° 0 mm 4 mps 639 mmHg 15%
17:00 +28°C° 0 mm 4 mps 639 mmHg 17%
18:00 +25°C° 0 mm 4 mps 639 mmHg 24%
19:00 +21°C° 0 mm 4 mps 639 mmHg 32%
20:00 +18°C° 0 mm 3 mps 639 mmHg 40%
21:00 +17°C° 0 mm 4 mps 639 mmHg 50%
22:00 +15°C° 0 mm 4 mps 639 mmHg 60%
23:00 +14°C° 0 mm 4 mps 639 mmHg 70%

18 August, Tuesday

Time Temperature Precipitation Wind Pressure Humidity
00:00 +13°C° 0 mm 4 mps 638 mmHg 73%
01:00 +13°C° 0 mm 3 mps 638 mmHg 76%
02:00 +12°C° 0 mm 3 mps 638 mmHg 79%
03:00 +11°C° 0 mm 3 mps 638 mmHg 82%
04:00 +11°C° 0 mm 3 mps 637 mmHg 85%
05:00 +10°C° 0 mm 3 mps 637 mmHg 88%
06:00 +11°C° 0 mm 3 mps 638 mmHg 86%
07:00 +12°C° 0 mm 4 mps 639 mmHg 83%
08:00 +13°C° 0 mm 5 mps 640 mmHg 80%
09:00 +16°C° 0 mm 5 mps 640 mmHg 69%
10:00 +20°C° 0 mm 5 mps 641 mmHg 57%
11:00 +23°C° 0 mm 5 mps 641 mmHg 46%
12:00 +25°C° 0 mm 5 mps 641 mmHg 41%
13:00 +26°C° 0 mm 4 mps 640 mmHg 37%
14:00 +27°C° 0 mm 4 mps 640 mmHg 32%
15:00 +27°C° 0 mm 4 mps 640 mmHg 35%
16:00 +26°C° 0 mm 4 mps 639 mmHg 37%
17:00 +25°C° 0 mm 4 mps 639 mmHg 40%
18:00 +22°C° 0 mm 4 mps 639 mmHg 48%
19:00 +20°C° 0 mm 4 mps 639 mmHg 56%
20:00 +18°C° 0 mm 4 mps 639 mmHg 63%
21:00 +17°C° 0 mm 4 mps 639 mmHg 67%
22:00 +15°C° 0 mm 4 mps 639 mmHg 71%
23:00 +14°C° 0 mm 4 mps 639 mmHg 75%
Show more